Stations météo

Publicité
Chartres, France (7143): Température de l'air & dewpoint: 17.01.2019 23:00:00 - 23.01.2019 23:00:00 (CET)Chartres, France (7143): Température de l'air 5cm: 17.01.2019 23:00:00 - 23.01.2019 23:00:00 (CET)Chartres, France (7143): Température de l'air -20cm & Température de l'air -100cm: 17.01.2019 23:00:00 - 23.01.2019 23:00:00 (CET)Chartres, France (7143): Vitesse du vent & gusts: 17.01.2019 23:00:00 - 23.01.2019 23:00:00 (CET)Chartres, France (7143): Direction du vent: 17.01.2019 23:00:00 - 23.01.2019 23:00:00 (CET)Chartres, France (7143): reduced air pressure: 17.01.2019 23:00:00 - 23.01.2019 23:00:00 (CET)Chartres, France (7143): visibility: 17.01.2019 23:00:00 - 23.01.2019 23:00:00 (CET)Chartres, France (7143): Ensoleillement: 17.01.2019 23:00:00 - 23.01.2019 23:00:00 (CET)Chartres, France (7143): Quantités de précipitations: 17.01.2019 23:00:00 - 23.01.2019 23:00:00 (CET)
Date & Time tt [°C] td [°C] tt 5cm [°C] tt -20cm [°C] tt -100cm [°C] ff [km/h] ff [knt] fx [km/h] fx [knt] dd ppp [hPa] vv [km] sd [min] rr [mm]
23.01.2019 23:00:00 -0,7 -2,0 - - - 8 4 18 10 N 1007,2 10 - 0,0
23.01.2019 22:00:00 0,3 -1,5 -0,2 4,5 8,4 10 5 29 15 N 1006,7 13 0 0,0
23.01.2019 21:00:00 0,5 -1,1 0,1 4,5 8,4 14 7 28 15 NNE 1005,9 14 0 0,0
23.01.2019 20:00:00 0,7 -0,8 0,3 4,5 8,4 17 9 31 17 N 1005,0 14 0 0,0
23.01.2019 19:00:00 0,8 -1,0 0,3 4,5 8,4 18 10 33 18 N 1003,8 17 0 0,0
23.01.2019 18:00:00 0,8 -1,1 0,2 4,5 8,5 18 10 33 18 N 1002,5 20 0 0,0
23.01.2019 17:00:00 0,8 -1,1 0,4 4,5 8,5 17 9 37 20 N 1001,6 20 0 0,0
23.01.2019 16:00:00 0,6 -0,3 0,2 4,4 8,5 19 10 35 19 N 1000,4 19 0 0,2
23.01.2019 15:00:00 0,3 0,0 0,1 4,4 8,5 21 11 44 24 NNW 999,4 2,5 0 0,4
23.01.2019 14:00:00 2,4 0,0 2,8 4,4 8,5 26 14 54 29 NNW 998,4 16 4 0,0
23.01.2019 13:00:00 2,8 -0,7 2,7 4,4 8,5 23 12 49 26 NNW 998,0 20 10 0,0
23.01.2019 12:00:00 2,8 -0,5 1,6 4,3 8,5 21 11 45 24 NNW 997,8 20 47 0,0
23.01.2019 11:00:00 1,7 -0,7 0,5 4,4 8,5 17 9 37 20 NW 997,5 20 9 0,0
23.01.2019 10:00:00 1,6 -0,3 -0,8 4,4 8,5 12 6 26 14 NW 997,3 20 49 0,0
23.01.2019 09:00:00 0,6 -0,6 -0,8 4,4 8,5 9 5 24 13 WNW 997,0 20 0 0,0
23.01.2019 08:00:00 0,8 -0,1 -0,7 4,4 8,5 13 7 24 13 WNW 997,0 20 0 0,0
23.01.2019 07:00:00 0,3 -0,1 -0,9 4,4 8,5 5 3 13 7 W 996,6 20 0 0,0
23.01.2019 06:00:00 0,5 -0,1 -0,5 4,5 8,5 6 3 15 8 W 996,3 20 0 0,0
23.01.2019 05:00:00 0,4 -0,2 -0,7 4,5 8,5 6 3 17 9 W 996,5 20 0 0,0
23.01.2019 04:00:00 1,2 0,6 0,2 4,5 8,6 7 4 18 10 W 996,8 20 0 0,0
23.01.2019 03:00:00 1,6 1,2 0,7 4,5 8,6 7 4 18 10 W 996,7 20 0 0,0
23.01.2019 02:00:00 1,4 1,0 0,6 4,5 8,6 8 4 19 11 W 997,4 20 0 0,0
23.01.2019 01:00:00 1,7 1,3 1,0 4,5 8,6 10 6 25 13 W 998,0 20 0 0,2
23.01.2019 00:00:00 1,8 1,4 1,1 4,4 8,6 8 4 22 12 SW 998,8 19 0 0,0
22.01.2019 23:00:00 2,2 2,1 1,2 4,5 8,6 17 9 33 18 WSW 999,3 13 0 0,4
22.01.2019 22:00:00 1,4 1,4 0,8 4,5 8,6 15 8 31 17 SSW 999,9 2,4 0 0,8
22.01.2019 21:00:00 1,1 1,0 0,8 4,5 8,6 14 7 27 15 S 1000,9 0,5 0 0,0
22.01.2019 20:00:00 1,6 1,5 0,7 4,5 8,6 8 5 16 9 S 1002,2 4,7 0 0,0
22.01.2019 19:00:00 1,4 1,3 0,7 4,5 8,6 7 4 19 11 S 1003,1 7 0 0,0
22.01.2019 18:00:00 1,1 1,0 0,7 4,5 8,6 6 4 18 10 SW 1003,9 1,9 0 0,0
22.01.2019 17:00:00 1,0 0,7 0,8 4,5 8,6 9 5 16 8 WSW 1004,1 2,1 0 0,0
22.01.2019 16:00:00 1,3 1,0 1,2 4,5 8,6 6 3 18 10 W 1004,7 2,1 4 0,0
22.01.2019 15:00:00 1,5 1,2 1,6 4,5 8,6 8 5 20 11 WSW 1005,1 2,8 0 0,0
22.01.2019 14:00:00 1,5 1,2 1,1 4,5 8,6 7 4 15 8 WSW 1005,9 2,8 0 0,0
22.01.2019 13:00:00 0,8 0,5 0,2 4,5 8,6 6 3 15 8 SSW 1006,8 3,1 0 0,6
22.01.2019 12:00:00 0,5 0,2 0,2 4,5 8,6 9 5 19 11 SSW 1007,5 0,9 0 0,6
22.01.2019 11:00:00 0,4 0,3 0,0 4,5 8,7 10 5 18 10 SSW 1007,8 1,9 0 1,0
22.01.2019 10:00:00 0,0 -0,3 -0,4 4,6 8,7 9 5 23 13 SSW 1008,4 0,7 0 1,0
22.01.2019 09:00:00 -0,5 -0,9 -1,0 4,6 8,7 13 7 31 17 SSW 1009,0 1,8 0 0,4
22.01.2019 08:00:00 -1,2 -1,8 -1,9 4,6 8,7 13 7 31 17 S 1009,9 1,9 0 0,0
22.01.2019 07:00:00 -1,8 -2,4 -2,3 4,6 8,7 16 9 29 16 SSW 1011,0 2,1 0 0,0
22.01.2019 06:00:00 -2,1 -2,7 -2,9 4,7 8,7 14 7 29 16 SSW 1012,1 2,0 0 0,0
22.01.2019 05:00:00 -2,7 -3,2 -3,0 4,7 8,7 14 8 25 13 S 1013,2 2,0 0 0,0
22.01.2019 04:00:00 -2,6 -3,2 -2,9 4,8 8,7 11 6 24 13 S 1014,9 1,9 0 0,0
22.01.2019 03:00:00 -2,5 -2,9 -2,6 4,8 8,7 10 6 23 13 S 1016,5 1,6 0 0,0
22.01.2019 02:00:00 -2,4 -3,0 -3,1 4,8 8,7 16 9 31 17 SSW 1017,7 1,9 0 0,0
22.01.2019 01:00:00 -2,6 -3,2 -3,6 4,9 8,7 9 5 22 12 SSW 1018,6 1,8 0 0,0
22.01.2019 00:00:00 -2,4 -3,0 -3,9 4,9 8,7 11 6 18 10 S 1019,5 2,4 0 0,0
21.01.2019 23:00:00 -2,4 -3,0 -3,8 5,0 8,7 7 4 17 9 S 1019,9 1,8 0 0,0
21.01.2019 22:00:00 -2,4 -3,0 -4,3 5,0 8,7 7 4 11 6 S 1020,7 1,8 0 0,0
21.01.2019 21:00:00 -2,1 -2,7 -4,5 5,0 8,7 7 4 10 5 S 1021,4 2,0 0 0,0
21.01.2019 20:00:00 -2,3 -3,1 -4,4 5,0 8,7 6 3 9 5 SSW 1022,2 3,0 0 0,0
21.01.2019 19:00:00 -1,8 -2,8 -4,0 5,1 8,8 4 2 9 5 SW 1022,5 4,3 0 0,0
21.01.2019 18:00:00 -0,8 -2,7 -3,2 5,1 8,8 5 3 6 4 SSE 1021,9 7 7 0,0
21.01.2019 17:00:00 2,3 -2,0 0,3 5,0 8,8 0 0 6 3 N 1022,2 10 58 0,0
21.01.2019 16:00:00 1,9 -2,1 3,8 5,0 8,7 3 1 9 5 NNE 1022,6 11 52 0,0
21.01.2019 15:00:00 2,2 -1,8 6,4 5,0 8,7 5 3 8 4 N 1022,9 10 60 0,0
21.01.2019 14:00:00 1,8 -1,8 6,5 5,1 8,8 2 1 20 11 ENE 1023,5 8 60 0,0
21.01.2019 13:00:00 0,4 -2,2 3,8 5,1 8,8 7 4 15 8 N 1024,2 7 60 0,0
21.01.2019 12:00:00 -0,7 -2,3 -0,6 5,1 8,8 9 5 18 10 NNE 1024,7 4,2 60 0,0
21.01.2019 11:00:00 -1,6 -2,9 -2,3 5,2 8,8 11 6 19 10 N 1025,0 3,7 60 0,0
21.01.2019 10:00:00 -2,2 -3,0 -3,4 5,2 8,8 8 4 18 10 N 1024,2 3,0 51 0,0
21.01.2019 09:00:00 -2,8 -3,5 -4,4 5,3 8,8 8 5 15 8 N 1024,0 2,8 0 0,0
21.01.2019 08:00:00 -2,8 -3,5 -4,6 5,4 8,8 6 3 14 8 N 1023,6 2,5 0 0,0
21.01.2019 07:00:00 -2,7 -3,2 -5,6 5,4 8,8 6 3 12 6 N 1023,4 2,7 0 0,0
21.01.2019 06:00:00 -2,0 -2,6 -4,0 5,5 8,8 9 5 15 8 N 1023,0 3,1 0 0,0
21.01.2019 05:00:00 -1,9 -2,3 -3,8 5,6 8,8 5 3 11 6 N 1022,9 2,6 0 0,0
21.01.2019 04:00:00 -1,6 -2,0 -3,6 5,6 8,8 6 3 11 6 N 1022,8 2,7 0 0,0
21.01.2019 03:00:00 -1,0 -1,6 -2,3 5,6 8,8 8 4 15 8 N 1022,7 3,7 0 0,0
21.01.2019 02:00:00 -0,4 -1,4 -1,5 5,7 8,8 5 3 15 8 N 1022,5 6 0 0,0
21.01.2019 01:00:00 0,4 -0,7 -0,6 5,7 8,8 9 5 16 9 N 1022,1 7 0 0,0
21.01.2019 00:00:00 0,7 -0,8 -0,4 5,7 8,9 8 4 24 13 N 1021,7 8 0 0,0
20.01.2019 23:00:00 1,4 -0,2 0,4 5,7 8,8 13 7 25 14 N 1021,0 10 0 0,0
20.01.2019 22:00:00 2,1 0,3 1,5 5,8 8,9 14 8 34 18 N 1020,6 10 0 0,0
20.01.2019 21:00:00 2,3 1,3 2,0 5,7 8,9 15 8 26 14 N 1019,9 5 0 0,0
20.01.2019 20:00:00 2,2 1,8 1,9 5,7 8,9 12 6 21 11 N 1019,1 3,9 0 0,0
20.01.2019 19:00:00 2,2 1,6 2,0 5,7 8,9 11 6 23 13 N 1018,3 4,1 0 0,0
20.01.2019 18:00:00 2,3 1,9 2,2 5,7 8,9 11 6 23 12 NNE 1017,6 5 0 0,0
20.01.2019 17:00:00 2,8 2,2 2,9 5,7 8,9 13 7 24 13 NNE 1016,7 6 0 0,0
20.01.2019 16:00:00 3,0 2,3 3,3 5,6 8,9 10 5 22 12 N 1016,1 10 0 0,0
20.01.2019 15:00:00 3,0 2,6 3,5 5,6 8,9 10 6 23 12 N 1015,5 8 0 0,0
20.01.2019 14:00:00 2,7 2,3 3,7 5,6 8,9 13 7 25 14 N 1015,2 11 0 0,0
20.01.2019 13:00:00 2,8 2,8 3,5 5,5 8,9 12 7 19 11 N 1015,0 11 0 0,0
20.01.2019 12:00:00 2,6 2,6 3,1 5,5 8,9 10 6 19 11 N 1014,7 5 0 0,0
20.01.2019 11:00:00 2,5 2,5 2,8 5,5 8,9 8 4 15 8 N 1013,9 2,7 0 0,0
20.01.2019 10:00:00 2,4 2,4 2,4 5,5 8,9 9 5 14 8 N 1013,0 1,2 0 0,0
20.01.2019 09:00:00 2,3 2,3 2,3 5,5 8,9 8 4 13 7 NNE 1012,3 0,3 0 0,0
20.01.2019 08:00:00 2,3 2,3 2,2 5,5 9,0 6 4 11 6 NNE 1011,4 0,2 0 0,0
20.01.2019 07:00:00 2,1 2,1 2,2 5,4 8,9 6 3 10 5 NNE 1010,7 0,2 0 0,0
20.01.2019 06:00:00 2,1 2,1 2,2 5,4 8,9 4 2 9 5 NNE 1010,3 0,2 0 0,0
20.01.2019 05:00:00 2,3 2,3 2,4 5,4 9,0 3 2 6 3 NE 1010,0 0,4 0 0,0
20.01.2019 04:00:00 2,4 2,4 2,5 5,4 9,0 2 1 4 2 NE 1009,8 0,3 0 0,0
20.01.2019 03:00:00 2,4 2,4 2,4 5,4 9,0 0 0 3 1 N 1009,6 0,2 0 0,0
20.01.2019 02:00:00 2,4 2,4 2,3 5,3 9,0 3 1 8 4 SSE 1009,4 0,2 0 0,0
20.01.2019 01:00:00 2,3 2,3 2,2 5,3 9,0 4 2 7 4 E 1009,5 0,2 0 0,0
20.01.2019 00:00:00 2,3 2,3 2,1 5,3 9,0 4 2 12 6 ESE 1009,3 0,2 0 0,0
19.01.2019 23:00:00 2,1 2,1 2,0 5,3 9,0 6 3 14 7 SE 1009,1 0,4 0 0,0
19.01.2019 22:00:00 2,1 2,1 2,1 5,3 9,0 6 3 13 7 SE 1008,9 1,0 0 0,0
19.01.2019 21:00:00 2,2 2,2 2,0 5,3 9,0 6 3 11 6 SE 1008,8 1,4 0 0,0
19.01.2019 20:00:00 2,0 2,0 1,9 5,2 9,0 5 3 11 6 ESE 1008,8 3,6 0 2,0
19.01.2019 19:00:00 2,0 2,0 1,7 5,2 9,0 2 1 9 5 ESE 1008,9 2,3 0 2,0
19.01.2019 18:00:00 1,7 1,7 1,6 5,2 9,0 4 2 10 5 ESE 1008,8 0,5 0 0,0
19.01.2019 17:00:00 1,5 1,5 1,5 5,2 9,0 6 3 11 6 ESE 1008,9 0,9 0 0,0
19.01.2019 16:00:00 1,5 1,5 1,3 5,2 9,0 6 4 14 8 SE 1009,0 0,7 0 0,2
19.01.2019 15:00:00 1,2 1,2 1,2 5,2 9,1 9 5 16 8 SE 1009,4 0,3 0 0,0
19.01.2019 14:00:00 1,0 0,9 0,6 5,2 9,0 6 3 14 7 SE 1010,0 0,5 0 0,0
19.01.2019 13:00:00 0,3 0,2 0,2 5,2 9,0 8 4 17 9 SE 1011,0 1,6 0 0,0
19.01.2019 12:00:00 0,2 -0,1 0,1 5,2 9,1 7 4 17 9 SE 1011,6 3,9 0 0,2
19.01.2019 11:00:00 -0,4 -0,8 -0,8 5,3 9,1 10 5 20 11 SE 1011,9 2,7 0 0,0
19.01.2019 10:00:00 -0,9 -1,3 -1,2 5,3 9,1 13 7 23 12 ESE 1011,8 4,3 0 0,4
19.01.2019 09:00:00 -1,2 -1,9 -1,5 5,4 9,0 10 5 22 12 ESE 1012,0 4,2 0 0,2
19.01.2019 08:00:00 -1,3 -2,3 -1,9 5,4 9,1 11 6 18 10 SE 1012,2 13 0 0,0
19.01.2019 07:00:00 -1,7 -2,7 -2,3 5,5 9,1 6 3 17 9 SE 1012,6 12 0 0,0
19.01.2019 06:00:00 -1,8 -2,6 -2,4 5,5 9,1 9 5 16 8 SE 1012,9 13 0 0,0
19.01.2019 05:00:00 -1,8 -2,9 -2,6 5,6 9,1 7 4 16 9 SE 1013,7 15 0 0,0
19.01.2019 04:00:00 -1,4 -2,5 -2,1 5,6 9,1 9 5 16 9 SSE 1014,4 16 0 0,0
19.01.2019 03:00:00 -1,4 -2,4 -2,4 5,6 9,1 9 5 18 10 SE 1014,9 15 0 0,0
19.01.2019 02:00:00 -1,5 -2,3 -2,3 5,7 9,1 10 5 18 10 SE 1015,3 12 0 0,0
19.01.2019 01:00:00 -1,1 -2,1 -2,0 5,7 9,1 8 4 21 11 SSE 1015,9 13 0 0,0
19.01.2019 00:00:00 -0,5 -1,6 -1,4 5,8 9,1 11 6 23 12 SE 1016,4 16 0 0,0
18.01.2019 23:00:00 -0,4 -1,5 -1,5 5,8 9,1 13 7 21 11 SE 1016,4 13 0 0,0
18.01.2019 22:00:00 0,1 -1,3 -0,9 5,8 9,1 10 6 25 13 SE 1016,7 15 0 0,0
18.01.2019 21:00:00 0,5 -1,3 -1,3 5,9 9,1 12 7 22 12 SE 1016,8 20 0 0,0
18.01.2019 20:00:00 0,2 -1,1 -1,3 5,9 9,1 7 4 16 9 SE 1017,3 15 0 0,0
18.01.2019 19:00:00 0,4 -1,0 -0,8 5,9 9,1 9 5 16 8 ESE 1017,5 17 0 0,0
18.01.2019 18:00:00 1,2 -0,9 0,3 5,9 9,1 9 5 14 7 ESE 1017,8 20 2 0,0
18.01.2019 17:00:00 3,2 -1,2 2,4 5,8 9,1 8 5 16 9 SE 1018,0 20 30 0,0
18.01.2019 16:00:00 3,5 -1,7 4,3 5,9 9,2 9 5 19 10 SSE 1018,2 20 30 0,0
18.01.2019 15:00:00 3,9 -1,5 5,7 5,8 9,1 8 4 19 10 S 1018,6 20 30 0,0
18.01.2019 14:00:00 4,4 -1,2 7,7 5,8 9,1 11 6 21 12 S 1019,0 20 60 0,0
18.01.2019 13:00:00 4,2 -1,4 6,9 5,9 9,1 11 6 19 11 S 1019,6 20 60 0,0
18.01.2019 12:00:00 3,4 -1,4 1,4 5,9 9,1 9 5 18 10 S 1020,6 20 60 0,0
18.01.2019 11:00:00 2,8 -0,5 -0,7 6,0 9,1 2 1 6 4 S 1020,7 20 43 0,0
18.01.2019 10:00:00 -1,2 -1,9 -4,0 6,1 9,1 3 1 6 4 S 1020,6 14 10 0,0
18.01.2019 09:00:00 -2,2 -2,9 -4,4 6,1 9,1 4 2 7 4 E 1020,5 15 0 0,0
18.01.2019 08:00:00 -2,3 -2,9 -5,2 6,2 9,1 0 0 9 5 N 1020,4 16 0 0,0
18.01.2019 07:00:00 -3,1 -3,8 -5,1 6,3 9,2 2 1 4 2 WSW 1020,8 17 0 0,0
18.01.2019 06:00:00 -2,8 -3,5 -4,5 6,4 9,1 2 1 3 2 W 1020,8 16 0 0,0
18.01.2019 05:00:00 -2,2 -2,9 -4,8 6,4 9,1 2 1 8 4 W 1020,6 18 0 0,0
18.01.2019 04:00:00 -2,7 -3,5 -4,9 6,5 9,1 2 1 5 3 SW 1020,9 20 0 0,0
18.01.2019 03:00:00 -2,1 -3,5 -4,6 6,6 9,2 0 0 7 4 N 1020,8 20 0 0,0
18.01.2019 02:00:00 -0,5 -2,4 -3,8 6,7 9,2 4 2 8 4 WNW 1021,0 20 0 0,0
18.01.2019 01:00:00 -0,1 -2,8 -2,9 6,7 9,2 4 2 8 5 WNW 1020,8 20 0 0,0
18.01.2019 00:00:00 -0,1 -2,6 -2,9 6,8 9,1 5 3 13 7 NNW 1020,4 20 0 0,0
17.01.2019 23:00:00 0,4 -2,3 -1,5 6,9 9,2 8 4 18 10 N 1019,7 20 0 0,0

tt = Température de l'air
td = dewpoint
tt 5cm = Température de l'air 5cm
tt -20cm = Température de l'air -20cm
tt -100cm = Température de l'air -100cm
ff = Vitesse du vent
fx = gusts
dd = Direction du vent
ppp = reduced air pressure
vv = visibility
sd = Ensoleillement
rr = Quantités de précipitations

stations d'obs. à proximité